Flag for Sweden Weather past 2 weeks in Norrköping, Sweden

Now
46 °F

Drizzle. Low clouds.


Feels Like: 42 °F
Forecast: 44 / 48 °F
Wind: 8 mph from Northeast

Location: Norrkoping Airport

Current Time: Oct 21, 2014 at 1:10:54 AM

Latest Report: Oct 21, 2014 at 12:20 AM


Visibility: N/A

Pressure: 29.62 "Hg

Humidity: 93%

Dew point: 45 °F

Location of NorrköpingLocation

Historic Weather in Norrköping — Graph

°F

Norrköping temperature yesterday

Maximum temperature yesterday: 55 °F (at 12:20 AM)
Minimum temperature yesterday: 46 °F (at 10:50 PM)
Average temperature yesterday: 52 °F

Past Weeks' High & Low Weather Summary

 TemperatureHumidityPressure
High61 °F (Oct 10, 1:20 PM)100% (Oct 7, 4:20 AM)30.45 "Hg (Oct 7, 4:20 AM)
Low37 °F (Oct 12, 1:20 AM)58% (Oct 6, 3:20 PM)29.36 "Hg (Oct 20, 6:50 AM)
Average49 °F88%29.88 "Hg
* Reported Oct 5 11:20 PM — Oct 20 11:50 PM, Norrköping, Weather by CustomWeather, © 2014

Note: Actual official high and low records may vary slightly from our data, if they occured in-between our weather recording intervals... More about our weather records

Advertising

Norrköping weather history for previous 24 hours

 ConditionsComfort  
Time TempWeatherWind HumidityBarometerVisibility
11:50 PM
Oct 20
46 °FFog.7 mph93%29.59 "Hg6 mi
11:20 PM46 °FLow clouds.6 mph93%29.59 "HgN/A
10:50 PM46 °FMostly cloudy.6 mph100%29.59 "HgN/A
10:20 PM48 °FLow clouds.7 mph94%29.59 "HgN/A
9:50 PM48 °FLow clouds.7 mph94%29.56 "HgN/A
9:20 PM48 °FMostly cloudy.8 mph94%29.56 "HgN/A
8:50 PM48 °FPassing clouds.6 mph94%29.56 "HgN/A
8:20 PM48 °FMostly cloudy.7 mph100%29.53 "HgN/A
7:50 PM50 °FMostly cloudy.8 mph94%29.53 "HgN/A
7:20 PM50 °FLow clouds.8 mph100%29.50 "HgN/A
6:50 PM52 °FMostly cloudy.10 mph94%29.50 "HgN/A
6:20 PM52 °FDrizzle. Mostly cloudy.7 mph100%29.47 "Hg2 mi
5:50 PM54 °FMostly cloudy.6 mph94%29.47 "HgN/A
5:20 PM54 °FScattered clouds.6 mph94%29.45 "HgN/A
4:50 PM54 °FScattered clouds.10 mph94%29.45 "HgN/A
4:20 PM54 °FScattered clouds.13 mph94%29.45 "HgN/A
3:50 PM55 °FPartly sunny.15 mph88%29.42 "HgN/A
3:20 PM55 °FPartly sunny.14 mph88%29.42 "HgN/A
2:50 PM54 °FFog.14 mph94%29.42 "Hg5 mi
2:20 PM54 °FLight rain. Fog.14 mph94%29.42 "Hg5 mi
1:50 PM54 °FMostly cloudy.14 mph94%29.39 "HgN/A
1:20 PM54 °FMostly cloudy.13 mph94%29.39 "HgN/A
12:50 PM54 °FOvercast.14 mph94%29.39 "HgN/A
12:20 PM54 °FMostly cloudy.10 mph94%29.39 "HgN/A
11:50 AM52 °FLight rain. Fog.13 mph100%29.39 "Hg5 mi
11:20 AM52 °FLight rain. Fog.14 mph100%29.36 "Hg5 mi
10:50 AM54 °FLight rain. Fog.15 mph94%29.36 "Hg6 mi
10:20 AM54 °FLight rain. Fog.15 mph94%29.36 "Hg6 mi
9:50 AM54 °FLight rain. Broken clouds.13 mph94%29.36 "Hg6 mi
9:20 AM54 °FLight rain. Broken clouds.8 mph94%29.36 "Hg4 mi
8:50 AM54 °FLight rain. Partly sunny.9 mph94%29.36 "Hg4 mi
8:20 AM54 °FLight rain. Partly cloudy.7 mph94%29.36 "HgN/A
7:50 AM54 °FRain. Partly cloudy.10 mph94%29.36 "Hg4 mi
7:20 AM54 °FLight rain. Mostly cloudy.7 mph94%29.36 "HgN/A
6:50 AM54 °FDrizzle. Overcast.8 mph94%29.36 "HgN/A
5:20 AM54 °FOvercast.10 mph94%29.39 "HgN/A
4:50 AM54 °FPassing clouds.8 mph88%29.39 "HgN/A
4:20 AM54 °FPassing clouds.10 mph88%29.39 "HgN/A
3:50 AM54 °FPassing clouds.9 mph88%29.39 "HgN/A
3:20 AM54 °FLight rain. Partly cloudy.9 mph94%29.42 "HgN/A
2:50 AM54 °FPassing clouds.8 mph94%29.42 "HgN/A
2:20 AM54 °FPassing clouds.7 mph94%29.42 "HgN/A
1:50 AM54 °FPassing clouds.7 mph94%29.42 "HgN/A
1:20 AM55 °FPassing clouds.7 mph94%29.45 "HgN/A
Weather by CustomWeather, © 2014

See weather overviewHow to use our weather pages